This is the latest recevied weather packets stored in our database for station/object K3BAY-1. If no packets are shown the sender has not sent any weather packets the latest 10 day(s).
| Time | Temp. | Humidity | Pressure | Rain* | Wind** | Luminosity | Snow |
|---|---|---|---|---|---|---|---|
| 1777735478 | 12.78° C | 60% | 1012.6 hPa | 0 mm | - | 163 W/m² | - |
| 1777735065 | 12.78° C | 61% | 1012.6 hPa | 0 mm | - | 177 W/m² | - |
| 1777734762 | 12.78° C | 61% | 1012.6 hPa | 0 mm | - | 177 W/m² | - |
| 1777734459 | 12.22° C | 62% | 1012.6 hPa | 0 mm | - | 190 W/m² | - |
| 1777734156 | 12.22° C | 63% | 1012.2 hPa | 0 mm | - | 197 W/m² | - |
| 1777733852 | 12.22° C | 64% | 1012.2 hPa | 0 mm | - | 202 W/m² | - |
| 1777733245 | 11.67° C | 64% | 1012.6 hPa | 0 mm | - | 200 W/m² | - |
| 1777732942 | 11.67° C | 66% | 1012.6 hPa | 0 mm | - | 191 W/m² | - |
| 1777732638 | 12.22° C | 66% | 1012.6 hPa | 0 mm | - | 171 W/m² | - |
| 1777732336 | 11.67° C | 69% | 1012.2 hPa | 0 mm | - | 163 W/m² | - |
| 1777732034 | 11.11° C | 66% | 1012.6 hPa | 0 mm | - | 167 W/m² | - |
| 1777731730 | 11.11° C | 66% | 1012.6 hPa | 0 mm | - | 167 W/m² | - |
| 1777731427 | 11.11° C | 67% | 1012.6 hPa | 0 mm | - | 171 W/m² | - |
| 1777731125 | 11.11° C | 67% | 1012.6 hPa | 0 mm | - | 171 W/m² | - |
| 1777730520 | 10.56° C | 70% | 1012.9 hPa | 0 mm | - | 140 W/m² | - |
| 1777730215 | 10.56° C | 70% | 1012.9 hPa | 0 mm | - | 140 W/m² | - |
| 1777729913 | 10.56° C | 72% | 1012.9 hPa | 0 mm | - | 136 W/m² | - |
| 1777729609 | 10.56° C | 72% | 1012.9 hPa | 0 mm | - | 136 W/m² | - |
| 1777729306 | 10.56° C | 70% | 1012.9 hPa | 0 mm | - | 134 W/m² | - |
| 1777729002 | 10.56° C | 72% | 1012.6 hPa | 0 mm | - | 135 W/m² | - |
| 1777728699 | 10.56° C | 72% | 1011.9 hPa | 0 mm | - | 143 W/m² | - |
| 1777728395 | 10.56° C | 72% | 1011.9 hPa | 0 mm | - | 143 W/m² | - |
| 1777728093 | 10.56° C | 72% | 1011.9 hPa | 0 mm | - | 120 W/m² | - |
| 1777727790 | 10.56° C | 72% | 1011.9 hPa | 0 mm | - | 120 W/m² | - |
| 1777727440 | 10.56° C | 72% | 1012.2 hPa | 0 mm | - | 98 W/m² | - |
* Rain latest hour (hover to see other rain measurements)
** Current wind speed in m/s (hover to see current wind gust speed)